COSMOS 2533 (43867 NORAD) Tracking and Keplerian Element Data

This shows tracking and keplerian element data for the satellite.

Feedback or suggestion? Click here.




ElementValue
Catalog43867
NameCOSMOS 2533
Epoch Orbit155
Epoch Day145.91716155
Epoch Year2019
RAAN115.2719
Inclination0.0395
Eccentricity8.56E-05
Argument of Perigee12.6753
Mean Anonmoly155.3793
Mean Motion1.00274937
Decay Rate-4.2E-07
L11 43867U 18107A 19145.91716155 -.00000042 00000-0 00000-0 0 9997
L22 43867 0.0395 115.2719 0000856 12.6753 155.3793 1.00274937 1553

Live tracking and technical data element details for COSMOS 2533 (NORAD 43867). COSMOS 2533 can be tracked NOW for your location showing map with azimuth and elevation plus other details from your city location.

Track the satellite on the map from your city or location and see movement details for azimuth, elevation, latitude, longitude, range, height, and movement on the map or in text.







IsCatalogInMostPopularTable: catalog: 43867, numindb: 43
Update: records affected: 1



GetName: 43867 COSMOS 2533

Hit Count: updated at: Sun, 26 May 2019 09:51:23 GMT